Weather History for Ouarzazate, Morocco

Change the Weather History Date:

Saturday, February 1, 2014

  Actual Average Record
Temperature  
Mean Temperature 58 °F -  
Max Temperature 72 °F 67 °F - ()
Min Temperature 44 °F 40 °F - ()
Degree Days  
Heating Degree Days 7    
Growing Degree Days 8 (Base 50)    
Moisture  
Dew Point 26 °F    
Average Humidity 32    
Maximum Humidity 61    
Minimum Humidity 5    
Precipitation  
Precipitation 0.00 in 0.02 in - ()
Sea Level Pressure  
Sea Level Pressure 30.05 in    
Wind  
Wind Speed 10 mph ()    
Max Wind Speed 32 mph    
Max Gust Speed -    
Visibility 8.8 miles    
Events      
T = Trace of Precipitation, MM = Missing Value Source: Averaged Metar Reports

Daily Weather History Graph

Daily Weather History Graph

Search for Another Location

Airport:

Trip Planner

Search our weather history database for the weather conditions in past years. The results will help you decide how hot, cold, wet, or windy it might be!

Date:

Astronomy

Feb. 01, 2014 Rise Set
Actual Time 7:19 AM WET 6:03 PM WET
Civil Twilight 6:54 AM WET 6:28 PM WET
Nautical Twilight 6:25 AM WET 6:57 PM WET
Astronomical Twilight 5:56 AM WET 7:26 PM WET
Moon 8:10 AM WET (2/1) 8:09 PM WET (2/1)
Length of Visible Light 11h 34m
Length of Day
10h 43m
Waxing Crescent, 4% of the Moon is Illuminated
Feb 1
Waxing Crescent
Feb 6
First Quarter
Feb 14
Full
Feb 22
Last Quarter
Mar 1
New

Hourly Weather History & Observations

Time (WET) Temp. Windchill Dew Point Humidity Pressure Visibility Wind Dir Wind Speed Gust Speed Precip Events Conditions
12:00 AM 55 °F - 30 °F 26%  in 12 mi NW 32.2 mph - -   Partly Cloudy
12:00 AM 55.4 °F - 30.2 °F 38% 30.04 in 6.2 mi NW 32.2 mph - N/A   Scattered Clouds
1:00 AM 51.8 °F - 30.2 °F 44% 30.06 in - WSW 10.4 mph - N/A   Scattered Clouds
2:00 AM 51.8 °F - 30.2 °F 44% 30.06 in 6.2 mi WSW 5.8 mph - N/A   Scattered Clouds
3:00 AM 50 °F - 32 °F 37%  in 12 mi WSW 8.1 mph - -   Partly Cloudy
3:00 AM 50.0 °F - 32.0 °F 50% 30.06 in 6.2 mi WSW 8.1 mph - N/A   Scattered Clouds
4:00 AM 50.0 °F - 32.0 °F 50% 30.06 in 6.2 mi WSW 10.4 mph - N/A   Partly Cloudy
5:00 AM 48.2 °F - 33.8 °F 58% 30.06 in 6.2 mi West 9.2 mph - N/A   Partly Cloudy
6:00 AM 49 °F - 30 °F 36%  in 12 mi West 10.4 mph - -   Scattered Clouds
6:00 AM 48.2 °F - 33.8 °F 58% 30.06 in 6.2 mi West 9.2 mph - N/A   Partly Cloudy
7:00 AM 46.4 °F 42.9 °F 32.0 °F 57% 30.06 in 6.2 mi West 6.9 mph - N/A   Partly Cloudy
8:00 AM 44.6 °F 42.2 °F 32.0 °F 61% 30.06 in 6.2 mi NW 4.6 mph - N/A   Partly Cloudy
9:00 AM 49 °F - 31 °F 38%  in 12 mi ESE 3.5 mph - -   Scattered Clouds
9:00 AM 50.0 °F - 32.0 °F 50% 30.09 in 6.2 mi Variable 3.5 mph - N/A   Partly Cloudy
10:00 AM 57.2 °F - 32.0 °F 38% 30.06 in 6.2 mi Variable 3.5 mph - N/A   Partly Cloudy
11:00 AM 60.8 °F - 28.4 °F 29% 30.09 in - Variable 4.6 mph - N/A   Clear
12:00 PM 67 °F - 24 °F 10%  in 12 mi NE 5.8 mph - -   Clear
12:00 PM 66.2 °F - 24.8 °F 21% 30.06 in - NE 5.8 mph - N/A   Clear
1:00 PM 69.8 °F - 19.4 °F 15% 30.04 in - Variable 2.3 mph - N/A   Clear
2:00 PM 69.8 °F - 12.2 °F 11% 30.01 in - NNW 5.8 mph - N/A   Clear
3:00 PM 71 °F - 14 °F 5%  in 12 mi NW 6.9 mph - -   Clear
3:00 PM 71.6 °F - 14.0 °F 11% 30.01 in - NW 6.9 mph - N/A   Clear
4:00 PM 69.8 °F - 12.2 °F 11% 30.01 in - Variable 3.5 mph - N/A   Clear
5:00 PM 69.8 °F - 10.4 °F 10% 30.01 in - Variable 2.3 mph - N/A   Clear
6:00 PM 65 °F - 13 °F 6%  in 12 mi North 9.2 mph - -   Clear
6:00 PM 64.4 °F - 14.0 °F 14% 30.01 in - North 9.2 mph - N/A   Clear
7:00 PM 60.8 °F - 21.2 °F 22% 30.01 in - NW 13.8 mph - N/A   Clear
8:00 PM 57.2 °F - 28.4 °F 33% 30.04 in - NNW 11.5 mph - N/A   Clear
9:00 PM 56 °F - 29 °F 24%  in 12 mi West 3.5 mph - -  
9:00 PM 55.4 °F - 28.4 °F 36% 30.06 in - Variable 3.5 mph - N/A   Clear
10:00 PM 53.6 °F - 26.6 °F 35% 30.06 in - WNW 9.2 mph - N/A   Clear
11:00 PM 53.6 °F - 24.8 °F 33% 30.06 in - Variable 2.3 mph - N/A   Clear